RH
3 3 3 5 7 13 18 15 14 17 19 26 31 32 31 29 27 24 9 18 14 10 12 17 13 25 56 51 57 56 24 20 17 18 20 22 26 30 34 32 32 27 27
3 4 7 12 15 21 24 21 19 24 26 28 38 40 39 34 28 23 23 17 20 14 13 17 15 37 64 65 63 42 30 27 24 28 28 32 36 37 37 36 26 28 39
4 7 13 19 30 36 36 30 23 21 20 18 15 13 11 8 7 6 7 11 23 22 12 17 18 33 52 65 67 60 62 49 42 42 46 41 38 38 33 27 42 55 46
23 21 27 30 40 42 49 40 30 23 28 24 16 12 10 8 6 5 5 8 20 26 15 11 16 14 40 49 53 54 62 64 60 56 58 51 46 44 49 38 44 48 54
14 14 40 40 44 47 56 54 41 32 24 19 16 16 15 16 14 12 8 8 10 19 17 10 12 17 22 25 25 36 40 44 45 43 44 44 53 60 65 58 49 42 44
15 15 47 61 73 69 65 60 52 38 34 19 19 20 18 28 32 29 25 18 11 10 8 6 6 10 16 18 19 17 19 25 29 34 34 34 37 40 45 64 68 63 50
37 47 55 68 69 65 67 67 64 56 37 22 18 19 28 38 48 47 45 44 43 47 44 17 9 9 11 14 17 18 20 24 28 32 35 34 33 40 49 61 69 78 68
53 54 64 72 68 59 57 60 71 74 71 61 22 18 22 38 47 50 54 47 44 44 42 49 40 19 16 14 15 18 21 26 28 31 35 39 45 62 79 90 74 77 96
61 67 69 71 77 66 55 53 57 77 85 76 61 30 25 30 40 46 53 55 57 59 56 40 50 53 56 50 39 32 28 32 37 42 46 48 52 64 72 73 88 92 93
77 85 91 82 79 75 68 48 44 56 78 80 48 29 43 59 64 59 64 70 61 66 67 62 66 71 77 69 61 63 60 62 61 65 64 66 65 68 84 95 97 87 93
48 54 78 85 81 74 71 63 48 50 50 51 66 68 46 39 44 54 59 62 58 57 63 70 69 71 73 75 83 74 71 77 74 69 61 45 40 62 77 89 93 90 88
13 28 45 60 76 72 68 64 44 26 45 42 45 46 44 46 40 41 46 46 56 54 51 58 59 83 95 99 64 59 78 87 84 80 79 62 74 94 97 92 93 94 89
8 10 20 25 27 41 47 28 22 14 21 25 18 30 43 38 40 48 48 47 46 37 35 65 61 60 70 80 77 91 96 79 82 74 67 81 95 95 96 95 96 92 92
8 7 7 6 6 7 10 18 29 17 19 21 24 34 28 26 25 26 36 48 50 46 35 49 54 77 68 39 46 70 96 87 70 92 99 98 98 96 94 96 98 95 96
10 11 9 7 7 7 8 9 10 13 15 14 18 20 15 24 29 28 37 27 37 48 68 74 71 62 67 70 64 44 48 37 37 43 63 70 75 92 88 91 96 99 100
12 13 13 12 11 11 11 11 11 11 16 18 17 20 23 27 38 25 26 49 58 48 57 62 57 40 46 42 42 43 37 37 34 38 44 55 64 68 85 97 95 93 97
21 21 20 18 17 15 14 13 14 14 14 15 14 14 15 16 20 21 24 29 35 32 25 26 26 25 28 31 33 33 34 41 51 54 57 67 74 86 96 96 85 86 82
25 25 24 24 22 21 21 20 20 19 19 19 20 21 21 23 23 24 26 27 27 32 36 32 30 30 29 28 26 26 26 28 38 57 61 71 87 95 94 95 91 91 73
24 26 26 28 28 27 25 25 24 24 23 23 23 24 25 26 29 28 24 24 32 32 31 32 33 28 20 21 24 23 22 23 26 42 82 98 96 94 98 93 93 93 88
27 27 25 26 29 29 27 26 26 28 28 26 28 37 38 37 40 40 36 31 30 28 29 29 23 21 19 24 21 20 20 37 54 87 97 97 97 96 96 96 94 95 96
28 30 28 28 33 34 34 35 37 35 33 35 35 38 39 39 39 36 34 28 24 26 26 21 32 28 24 20 15 13 35 79 96 98 97 98 93 95 96 88 92 95 85
30 38 40 41 44 46 46 45 44 46 47 44 41 41 43 41 37 34 31 26 24 22 23 32 31 29 26 18 14 34 66 97 97 96 91 97 96 96 100 95 87 94 93
34 44 46 47 48 50 53 55 54 50 45 44 42 42 46 50 47 36 31 27 23 27 38 37 37 40 39 42 42 53 70 80 82 93 96 95 94 96 90 75 86 93 70
52 54 56 55 54 52 53 52 49 47 48 50 51 50 50 52 43 35 33 29 27 42 39 31 37 51 58 58 59 54 61 67 74 88 93 96 97 95 95 96 85 68 68
54 63 65 62 57 56 54 53 53 55 59 61 60 62 54 44 37 35 36 46 51 45 29 24 41 70 63 55 53 53 54 56 58 89 97 94 88 97 96 83 73 67 63
72 71 79 80 66 63 66 63 55 56 59 59 67 65 46 41 37 34 37 42 41 35 35 49 69 68 72 62 58 61 72 86 85 80 96 96 94 96 96 96 89 77 73
Wind_Speed
16 16 15 15 14 13 12 13 15 15 15 13 15 14 14 13 11 10 11 10 11 12 13 11 13 15 15 12 11 12 10 8 11 11 16 17 21 22 24 25 27 29 32
21 19 18 14 13 10 10 10 10 10 10 10 11 12 14 15 15 14 12 12 12 13 14 13 13 13 13 12 11 11 10 12 12 17 16 18 20 25 24 27 30 31 32
21 18 16 16 11 9 10 10 9 8 9 8 6 6 6 7 9 11 13 13 13 13 15 15 14 13 11 12 14 16 18 16 16 17 21 21 21 23 28 30 31 38 37
18 16 16 16 13 12 12 11 11 11 10 8 6 4 3 3 5 7 8 9 11 14 18 17 18 19 19 15 14 15 14 19 20 21 25 28 29 28 30 31 34 37 36
22 19 17 18 16 15 13 13 13 12 10 9 7 5 3 2 3 5 7 10 10 15 19 21 20 22 23 23 19 21 24 24 25 24 27 29 31 34 35 36 38 37 37
22 19 18 16 11 11 14 14 14 14 11 13 10 10 8 4 4 5 6 9 11 14 17 20 23 23 24 26 30 30 28 29 30 33 33 34 35 38 40 43 42 42 38
23 21 16 12 9 11 13 13 10 13 13 11 16 13 10 9 9 9 9 9 10 14 19 22 23 25 26 25 27 31 31 31 33 36 38 41 42 39 41 45 48 50 44
24 21 19 16 13 15 16 15 14 15 18 18 15 16 14 12 13 16 19 20 19 18 20 21 22 24 25 29 31 33 35 34 35 36 40 45 48 49 49 48 50 55 47
26 24 25 24 22 20 19 20 20 17 19 19 23 17 16 17 18 19 22 26 27 26 27 22 23 23 25 28 31 31 34 38 39 41 45 47 52 56 56 58 64 60 48
26 30 35 30 29 29 29 27 27 24 20 19 22 22 19 20 23 24 26 31 32 31 32 30 28 27 30 32 34 36 38 39 45 48 52 54 54 53 55 56 61 65 67
33 35 34 35 34 35 37 36 34 32 29 25 25 24 22 22 24 24 26 30 31 35 36 35 34 36 38 39 40 42 41 47 50 55 52 51 53 50 49 56 61 64 64
33 32 36 39 38 40 40 41 42 38 36 33 29 28 28 29 28 28 29 33 36 42 42 41 43 43 47 46 46 48 52 51 52 53 56 57 60 62 56 61 60 65 68
34 38 40 40 41 43 44 41 40 37 36 36 35 33 34 35 35 36 39 39 41 46 47 47 52 51 51 53 53 57 57 56 58 57 62 59 71 74 69 64 63 66 65
29 31 31 30 35 40 40 40 42 37 37 36 36 38 40 41 42 46 47 46 45 46 49 49 53 57 60 59 59 58 64 62 65 67 70 71 74 72 76 47 60 58 49
32 31 32 33 33 35 38 39 40 41 42 42 43 45 46 46 47 48 50 53 52 52 55 57 60 61 64 67 70 69 69 68 67 73 77 79 80 78 75 64 39 42 50
35 35 34 36 37 37 39 40 42 44 45 46 48 49 49 50 52 53 55 58 60 58 59 61 64 66 68 71 75 75 75 76 70 75 78 77 79 81 83 73 57 48 35
38 36 37 38 40 40 41 41 44 45 46 48 49 50 52 54 55 56 58 61 64 65 66 65 65 65 67 71 75 75 74 77 78 78 77 78 83 82 86 49 30 26 22
42 42 41 40 42 41 41 44 47 48 50 50 51 53 56 57 58 59 62 64 66 67 68 68 69 70 72 74 76 78 78 76 80 83 84 80 76 65 45 45 32 27 27
45 44 43 43 44 45 46 47 49 51 53 55 56 57 59 60 62 64 67 69 71 69 68 67 67 70 70 66 61 65 70 75 80 84 76 90 72 68 65 72 50 28 28
50 50 49 48 50 51 52 55 56 57 59 59 60 59 62 65 67 69 70 71 71 71 72 69 66 60 53 57 64 68 72 73 71 70 72 70 67 54 63 59 52 33 30
50 53 54 55 57 58 59 61 60 61 63 64 65 65 66 68 69 71 71 70 68 68 67 68 57 44 49 56 57 68 56 46 53 62 56 61 49 49 48 49 41 26 29
53 57 59 61 62 62 63 64 64 64 66 67 68 67 68 72 73 71 65 65 65 66 65 56 46 42 49 47 48 54 40 32 32 34 32 44 49 44 49 42 27 29 25
59 62 64 64 64 65 66 68 68 68 69 69 71 72 70 68 67 66 67 63 62 60 54 44 37 39 45 40 33 35 31 32 31 28 26 30 30 31 24 20 21 24 26
64 65 65 64 64 64 65 66 67 68 69 68 68 68 64 66 65 64 62 61 61 53 47 44 41 41 41 37 36 28 23 23 17 15 18 25 22 24 24 23 23 25 24
66 64 63 63 62 60 60 63 65 68 70 69 70 68 63 64 63 60 57 54 51 48 43 43 45 40 40 37 39 42 28 22 20 17 25 19 21 23 25 26 26 26 26
62 64 62 61 64 61 59 62 62 63 61 57 54 55 59 59 58 56 51 46 45 42 42 42 43 43 42 41 35 32 32 30 30 30 27 27 30 28 30 32 29 33 31
Wind_Direction
221 225 226 230 239 260 274 276 277 277 276 270 263 265 271 272 275 279 274 283 280 276 283 289 305 327 339 320 307 290 307 304 308 308 317 322 326 330 334 335 336 334 333
218 219 228 242 254 260 266 273 277 282 283 283 267 266 264 273 280 278 270 269 279 278 279 282 300 310 322 314 309 291 302 309 303 310 316 319 327 330 331 333 333 329 331
221 229 244 260 239 255 271 284 292 282 278 290 287 282 308 312 295 291 284 264 255 263 257 267 266 290 295 294 297 293 300 304 308 305 311 316 319 322 326 326 331 338 340
224 234 249 250 248 262 282 297 294 289 277 271 280 294 281 283 300 308 303 280 261 263 257 254 262 268 268 276 288 305 298 302 309 316 315 317 316 315 318 323 329 333 338
226 229 245 241 252 264 275 288 301 307 292 277 263 249 255 283 290 313 312 305 278 266 262 255 262 269 267 278 287 289 298 296 299 306 309 310 314 315 314 317 320 321 324
238 240 243 236 262 278 269 281 299 305 303 274 261 265 277 287 299 310 316 312 311 308 291 285 267 269 271 282 287 287 290 294 298 304 305 305 308 311 315 315 313 313 314
227 236 247 262 262 268 268 275 290 290 288 277 260 255 263 283 291 303 310 317 322 333 320 303 296 282 281 279 284 290 293 294 300 300 303 303 304 308 308 309 311 311 311
241 244 249 248 252 262 261 267 272 273 281 275 264 255 257 265 281 292 299 307 308 316 326 323 311 298 294 289 283 285 292 298 296 295 298 301 299 295 295 300 303 303 314
245 250 255 258 258 260 262 267 268 264 270 271 262 268 273 280 287 293 297 296 301 307 306 309 298 294 294 292 288 289 286 287 290 289 288 288 291 296 298 301 307 307 311
251 255 255 253 255 262 268 265 267 264 264 261 259 261 272 278 284 287 290 291 295 297 297 300 299 293 293 297 291 289 289 290 284 283 286 292 294 297 300 302 302 303 308
246 246 246 246 248 256 263 267 269 266 264 264 262 256 258 266 270 272 274 279 287 288 290 291 292 289 292 294 295 289 292 287 287 291 292 293 297 298 299 298 297 300 305
227 240 247 248 246 250 254 263 270 261 261 264 265 263 265 270 269 269 271 273 276 279 283 285 285 286 287 289 289 290 291 286 284 282 286 289 289 286 289 289 289 291 298
231 229 234 241 245 247 250 255 260 256 258 263 265 268 271 274 274 274 274 272 272 276 277 279 282 284 284 287 291 291 284 286 288 294 290 289 292 286 283 287 290 292 299
241 244 243 245 247 245 244 245 254 256 258 262 264 263 266 271 272 272 273 277 275 277 279 280 284 286 287 290 291 289 288 292 298 292 292 294 290 298 298 297 302 293 300
243 245 247 248 248 247 249 251 251 254 256 258 261 266 268 269 274 275 275 275 272 273 276 279 283 287 288 289 290 292 292 294 293 293 290 293 294 295 296 290 289 292 290
243 244 245 247 248 249 250 252 255 255 257 260 265 268 270 271 270 272 274 277 280 278 277 280 281 284 287 290 291 292 291 291 291 288 288 288 288 292 287 287 288 289 275
247 245 247 249 252 252 254 254 258 261 264 266 267 268 269 270 272 274 275 276 278 281 283 283 285 287 289 290 290 291 289 290 285 282 281 278 280 282 277 274 292 272 260
248 248 248 248 252 254 253 253 255 257 260 263 264 266 267 268 270 271 273 275 278 279 283 287 290 291 291 290 289 289 289 286 284 285 280 275 269 265 272 286 286 271 266
243 245 244 245 247 250 252 254 257 258 260 261 262 262 265 268 269 271 274 275 277 283 287 287 289 294 297 294 294 294 289 288 284 281 276 271 258 263 267 274 286 276 266
242 243 244 244 244 246 249 253 256 257 260 262 264 266 267 268 271 273 277 283 288 290 291 294 295 297 300 298 302 297 299 295 289 278 268 258 239 256 257 268 283 273 262
240 242 242 242 244 247 249 251 254 258 260 261 263 266 270 272 275 278 283 289 288 291 291 294 301 295 298 301 294 301 304 295 258 235 221 213 234 254 264 279 285 249 257
244 242 243 243 245 247 250 252 255 258 263 263 264 267 270 274 276 279 281 283 288 292 296 300 296 298 301 301 310 313 312 268 235 231 272 267 280 270 271 276 240 248 268
241 242 244 247 248 248 250 253 257 259 261 262 264 266 269 273 275 277 279 285 290 294 295 294 292 297 303 308 317 313 299 288 278 265 273 272 273 266 239 232 247 267 270
237 240 245 247 248 249 251 253 255 257 261 263 266 266 269 275 277 276 279 284 288 288 290 287 282 287 292 297 303 308 304 295 287 297 298 285 258 222 238 255 263 261 260
240 242 244 246 247 251 253 255 258 264 267 269 267 267 268 273 276 278 280 283 282 282 283 279 280 281 280 283 288 291 283 283 275 284 279 259 249 260 260 257 263 257 258
248 246 247 248 250 253 257 266 266 272 271 270 266 258 265 270 272 276 279 277 273 272 273 274 274 274 275 282 288 290 279 272 269 265 278 271 280 289 269 264 262 252 254